Weather observations for the past three days for
Akron Canton Regional Airport
Metric (Imperial)
Date Time (edt) Wind (kph) Vis. (km) Weather Sky Cond. Temperature (ºC) Relative Humidity Wind Chill (°C) Heat Index (°C) Pressure Precipitation (cm)
Air Dwpt 6 hour altimeter (cm) sea level (mb) 1 hr 3 hr 6 hr
Max. Min.
21 08:51 S 11 16.09 Mostly Cloudy FEW065 BKN250 22.2 15 64% 76.12 1013.9
21 07:51 SW 9 16.09 Mostly Cloudy SCT065 BKN250 21.1 15 21.1 18.3 68% 76.1 1013.5
21 06:51 S 9 16.09 Mostly Cloudy SCT060 SCT150 BKN250 18.3 14.4 78% 76.07 1013.3
21 05:51 S 9 16.09 Mostly Cloudy FEW090 BKN240 18.3 13.9 76% 76.02 1012.8
21 04:51 S 9 16.09 Fair CLR 18.9 13.9 73% 76.02 1012.6
21 03:51 Calm 16.09 Mostly Cloudy BKN090 BKN250 18.9 13.9 73% 76.02 1012.6
21 02:51 S 11 16.09 Mostly Cloudy SCT080 BKN250 19.4 13.9 71% 76.02 1012.7
21 01:51 SW 7 16.09 Mostly Cloudy FEW080 BKN250 20.6 13.9 25 20.6 66% 76.07 1013.2
21 00:51 SW 9 16.09 Mostly Cloudy FEW080 BKN250 20.6 13.3 63% 76.07 1013.3
20 23:51 S 15 16.09 Mostly Cloudy BKN250 21.7 13.9 61% 76.07 1013.2
20 22:51 SW 7 16.09 Mostly Cloudy BKN250 21.7 13.9 61% 76.1 1013.7
20 21:51 S 13 16.09 Mostly Cloudy BKN250 22.8 13.9 57% 76.07 1013.4
20 20:51 S 11 16.09 Partly Cloudy SCT250 23.3 13.9 56% 76.05 1012.9
20 19:51 SW 11 16.09 Partly Cloudy FEW120 SCT250 25 14.4 28.9 25 52% 26 76.07 1013.2
20 18:51 S 13 16.09 Partly Cloudy FEW120 SCT250 27.2 14.4 45% 27 76.02 1012.8
20 17:51 SW 15 16.09 Partly Cloudy FEW120 SCT250 28.3 13.9 41% 28 76.05 1013.1
20 16:51 SW 17 16.09 Partly Cloudy FEW050 FEW120 SCT250 28.3 13.9 41% 28 76.1 1013.6
20 15:51 SW 19 16.09 A Few Clouds FEW050 FEW200 28.9 14.4 41% 29 76.12 1013.9
20 14:51 Vrbl 9 16.09 A Few Clouds FEW050 FEW200 28.3 13.9 41% 28 76.15 1014.3
20 13:51 S 13 G 28 16.09 A Few Clouds FEW050 27.8 14.4 28.3 18.9 44% 28 76.17 1014.7
20 12:51 SW 11 16.09 Fair CLR 27.2 14.4 45% 27 76.2 1015.1
20 11:51 SW 13 16.09 A Few Clouds FEW250 26.7 14.4 47% 27 76.25 1015.6
20 10:51 SW 15 16.09 Partly Cloudy SCT250 25.6 13.3 47% 26 76.23 1015.5
20 09:51 S 11 16.09 Partly Cloudy SCT250 23.9 13.9 54% 25 76.23 1015.5
20 08:51 S 9 16.09 Partly Cloudy SCT250 22.2 13.9 59% 76.28 1016.0
20 07:51 SE 7 16.09 Mostly Cloudy SCT100 BKN250 18.9 13.3 18.9 16.1 70% 76.25 1015.8
20 06:51 Calm 16.09 Mostly Cloudy SCT100 BKN250 17.2 12.2 73% 76.23 1015.4
20 05:51 Calm 16.09 Partly Cloudy FEW080 SCT250 16.7 12.2 75% 76.2 1014.9
20 04:51 Calm 16.09 Partly Cloudy SCT250 17.8 12.2 70% 76.15 1014.4
20 03:51 SE 7 16.09 Mostly Cloudy BKN250 17.8 12.8 73% 76.1 1013.6
20 02:51 SE 11 16.09 Mostly Cloudy BKN220 18.9 12.2 65% 76.12 1014.0
20 01:51 SE 9 16.09 Partly Cloudy FEW090 SCT220 18.9 12.8 25 18.9 68% 76.2 1014.9
20 00:51 SE 6 16.09 Partly Cloudy FEW090 SCT220 19.4 12.8 66% 76.23 1015.3
19 23:51 SE 7 16.09 Mostly Cloudy FEW090 BKN220 20.6 13.3 63% 76.2 1015.1
19 22:51 E 9 16.09 Partly Cloudy FEW090 SCT220 21.7 12.8 57% 76.17 1014.8
19 21:51 E 11 16.09 Partly Cloudy FEW100 SCT220 22.2 12.8 55% 76.17 1014.7
19 20:51 N 7 16.09 A Few Clouds FEW100 FEW220 22.8 13.3 55% 76.17 1014.8
19 19:51 NE 6 16.09 A Few Clouds FEW065 FEW250 25 14.4 28.9 25 52% 26 76.12 1014.2
19 18:51 NE 7 16.09 A Few Clouds FEW070 27.8 13.9 43% 28 76.1 1013.9
19 17:51 N 9 16.09 Partly Cloudy SCT070 28.3 13.9 41% 28 76.12 1014.1
19 16:51 NW 7 16.09 Partly Cloudy SCT070 28.3 12.2 37% 28 76.1 1014.0
19 15:51 N 9 16.09 Partly Cloudy SCT070 28.3 12.8 38% 28 76.12 1014.3
19 14:51 Vrbl 7 16.09 A Few Clouds FEW070 28.3 13.3 40% 28 76.17 1014.9
19 13:51 Vrbl 7 16.09 Fair CLR 27.2 12.2 27.8 16.7 39% 27 76.17 1015.0
19 12:51 N 15 16.09 Fair CLR 26.7 12.8 42% 27 76.2 1015.2
19 11:51 Vrbl 7 16.09 Fair CLR 26.1 12.2 42% 26 76.23 1015.5
19 10:51 Calm 16.09 Fair CLR 25 13.3 48% 26 76.23 1015.5
19 09:51 Vrbl 6 16.09 Fair CLR 22.2 13.9 59% 76.23 1015.6
19 08:51 W 6 16.09 Fair CLR 20 15.6 76% 76.23 1015.5
19 07:51 Calm 11.27 Shallow Fog CLR 16.1 15.6 16.1 11.7 97% 76.2 1015.3
19 06:51 Calm 11.27 Shallow Fog CLR 12.2 12.2 100% 76.17 1015.2
19 05:51 Calm 11.27 Patches Fog CLR 12.2 11.7 97% 76.12 1014.2
19 04:51 Calm 11.27 Patches Fog CLR 12.2 12.2 100% 76.1 1013.9
19 03:51 Calm 9.66 Shallow Fog Fog/Mist CLR 12.2 12.2 100% 76.1 1013.9
19 02:51 Calm 12.87 Fair CLR 13.3 12.8 97% 76.07 1013.7
19 01:51 Calm 16.09 Fair CLR 15 13.9 22.8 15 93% 76.07 1013.7
19 00:51 E 7 14.48 Fair CLR 15.6 13.9 90% 76.07 1013.5
18 23:51 NE 7 14.48 Fair CLR 16.1 13.9 87% 76.05 1013.3
18 22:51 N 11 16.09 Fair CLR 17.2 15 87% 76.02 1013.1
18 21:51 N 11 16.09 A Few Clouds FEW075 18.9 15 78% 75.97 1012.4
18 20:51 N 13 16.09 A Few Clouds FEW055 FEW080 20.6 14.4 68% 75.95 1012.0
18 19:51 N 11 16.09 Partly Cloudy FEW042 FEW055 SCT085 22.8 15.6 26.7 22.8 64% 75.95 1011.9
18 18:51 N 6 16.09 Partly Cloudy FEW039 SCT050 SCT085 22.8 16.1 66% 75.95 1011.8
18 17:51 N 9 16.09 Mostly Cloudy SCT046 BKN070 23.9 15 58% 25 75.92 1011.8
18 16:51 Calm 16.09 Mostly Cloudy FEW032 BKN055 26.1 14.4 49% 27 75.92 1011.5
18 15:51 N 9 16.09 Mostly Cloudy FEW034 BKN043 25 16.1 58% 26 75.95 1012.0
18 14:51 Calm 16.09 Mostly Cloudy BKN035 24.4 16.7 62% 25 75.97 1012.2
18 13:51 N 6 16.09 Mostly Cloudy SCT026 BKN035 22.8 16.7 23.9 15.6 69% 76.02 1012.8
18 12:51 Vrbl 9 16.09 Mostly Cloudy BKN024 23.3 17.2 69% 76.05 1013.1
18 11:51 Vrbl 6 16.09 Mostly Cloudy BKN015 22.2 17.2 73% 76.05 1013.2
18 10:51 Calm 4.83 Fog/Mist OVC005 18.3 16.7 90% 76.07 1013.5
Date Time (edt) Wind (kph) Vis. (km) Weather Sky Cond. Air Dwpt Max. Min. Relative Humidity Wind Chill (°C) Heat Index (°C) altimeter (cm) sea level (mb) 1 hr 3 hr 6 hr
6 hour
Temperature (ºC) Pressure Precipitation (cm)